Regional Weather Roundup
Issued by NWS

Home | Current Version | Previous Version | Text Only | Print | Product List | Glossary Off
Versions: 1 2 3 4 5 6 7 8 9 10 11 12 13 14 15 16 17 18 19 20 21 22 23 24 25 26 27 28 29 30 31 32 33 34 35 36 37 38 39 40 41 42 43 44 45 46 47 48 49 50

000
ASUS43 KLSX 291907
RWRMO

WEATHER SUMMARY FOR MISSOURI
NATIONAL WEATHER SERVICE SPRINGFIELD MO
200 PM CDT TUE JUL 29 2014

NOTE: "FAIR" INDICATES FEW OR NO CLOUDS BELOW 12,000 FEET WITH NO
       SIGNIFICANT WEATHER AND/OR OBSTRUCTIONS TO VISIBILITY.
       CURRENT SKY AND/OR WEATHER CONDITIONS ARE NOT AVAILABLE FOR
       CHILLICOTHE AND FARMINGTON.

MOZ001>031-035>038-043-044-053-054-292000-
...NORTHERN AND WESTERN MISSOURI...

CITY           SKY/WX    TMP DP  RH WIND       PRES   REMARKS
KANSAS CTY INT PTSUNNY   80  57  45 VRB7      30.17F
KANSAS C DTWN  MOSUNNY   80  55  42 NW7       30.15F
LEE`S SUMMIT   PTSUNNY   80  55  42 VRB6      30.16F
ST JOSEPH      MOSUNNY   79  59  50 NW7       30.16F
CHILLICOTHE      N/A     78  57  48 N3        30.17F
KIRKSVILLE     MOSUNNY   78  54  43 CALM      30.16F

$$
MOZ066>068-077>081-088>096-101>105-292000-
...SOUTHWEST MISSOURI...

CITY           SKY/WX    TMP DP  RH WIND       PRES   REMARKS
SPRINGFIELD    MOSUNNY   82  54  37 NW9       30.16F
JOPLIN         PTSUNNY   84  56  38 W8        30.17S

$$
MOZ032>034-039>042-045>050-055>058-069>072-292000-
...CENTRAL MISSOURI...

CITY           SKY/WX    TMP DP  RH WIND       PRES   REMARKS
COLUMBIA       MOSUNNY   78  55  44 VRB6      30.16F
JEFFERSON CITY MOSUNNY   79  56  45 NW10      30.14F
ROLLA          PTSUNNY   78  52  40 NW7G16    30.14F
SEDALIA        MOSUNNY   81  60  48 NW10      30.16F
WHITEMAN AFB   MOSUNNY   81  44  27 N8        30.15F
OSAGE BEACH    MOSUNNY   81  54  39 N10       30.15F

$$
MOZ051-052-059>065-292000-
...EAST CENTRAL MISSOURI...

CITY           SKY/WX    TMP DP  RH WIND       PRES   REMARKS
ST LOUIS INTL  MOSUNNY   77  55  46 NW9       30.14F
SPIRIT OF STL  PTSUNNY   80  52  37 N12       30.12F
ST CHARLES     PTSUNNY   76  56  49 NW7       30.13S

$$
MOZ072>076-082>087-097>100-106>115-292000-
...SOUTH CENTRAL AND SOUTHEAST MISSOURI...

CITY           SKY/WX    TMP DP  RH WIND       PRES   REMARKS
CAPE GIRARDEAU PTSUNNY   76  52  43 CALM      30.13F
FARMINGTON     PTSUNNY   75  52  43 NW6       30.17S
POPLAR BLUFF   MOSUNNY   78  53  41 E6        30.13F
WEST PLAINS    CLOUDY    78  55  44 N6        30.17F

$$


USA.gov is the U.S. government's official web portal to all federal, state and local government web resources and services.